ENT3HS EPWR-LGZA

Flight info

Callsign ENT3HS
Flight time 2h 3m
Altitude 37000
Route PEKOT DCT DESEN DCT LABUK DCT XENAK DCT VEBAL DCT RODON DCT LIMJA DCT PITAS UN732 KFN
Aircraft B38M/M-SDE1FGHILORVWXY/HB1

Departure

Time 2026-05-01 11:04
Airport Copernicus Wrocław Airport (EPWR)

Arrival

Time 2026-05-01 13:07
Airport Zakynthos International Airport Dionysios Solomos (LGZA)
Time Latitude Longitude Altitude Speed Heading
2026-05-01 10:31 51.10779 16.88296 406 ft 0 kts 26°
2026-05-01 10:53 51.10759 16.88282 406 ft 4 kts 26°
2026-05-01 10:53 51.10739 16.88266 404 ft 4 kts 20°
2026-05-01 10:54 51.10715 16.88265 402 ft 4 kts 334°
2026-05-01 10:54 51.10696 16.88295 400 ft 0 kts 296°
2026-05-01 10:57 51.10698 16.88289 400 ft 2 kts 296°
2026-05-01 10:57 51.10707 16.88260 404 ft 4 kts 296°
2026-05-01 10:57 51.10726 16.88199 406 ft 10 kts 296°
2026-05-01 10:58 51.10772 16.88049 403 ft 21 kts 295°
2026-05-01 10:58 51.10844 16.87815 404 ft 25 kts 294°
2026-05-01 10:58 51.10900 16.87631 404 ft 17 kts 296°
2026-05-01 10:58 51.10951 16.87459 405 ft 14 kts 279°
2026-05-01 10:59 51.10884 16.87371 405 ft 14 kts 205°
2026-05-01 10:59 51.10788 16.87296 406 ft 16 kts 206°
2026-05-01 10:59 51.10679 16.87257 402 ft 18 kts 140°
2026-05-01 10:59 51.10617 16.87442 403 ft 20 kts 116°
2026-05-01 11:00 51.10553 16.87652 404 ft 23 kts 116°
2026-05-01 11:00 51.10481 16.87884 405 ft 24 kts 116°
2026-05-01 11:00 51.10406 16.88130 408 ft 25 kts 116°
2026-05-01 11:00 51.10327 16.88386 406 ft 27 kts 116°
2026-05-01 11:01 51.10242 16.88662 405 ft 29 kts 116°
2026-05-01 11:01 51.10149 16.88965 405 ft 32 kts 116°
2026-05-01 11:01 51.10052 16.89285 407 ft 33 kts 116°
2026-05-01 11:01 51.09981 16.89513 408 ft 19 kts 116°
2026-05-01 11:02 51.09920 16.89712 406 ft 14 kts 116°
2026-05-01 11:02 51.09921 16.89770 405 ft 3 kts 110°
2026-05-01 11:02 51.09912 16.89775 405 ft 0 kts 188°
2026-05-01 11:02 51.09910 16.89771 405 ft 1 kts 231°
2026-05-01 11:03 51.09915 16.89730 403 ft 9 kts 290°
2026-05-01 11:03 51.09919 16.89718 406 ft 0 kts 295°
2026-05-01 11:03 51.10013 16.89412 405 ft 72 kts 296°
2026-05-01 11:03 51.10344 16.88321 407 ft 143 kts 298°
2026-05-01 11:04 51.10817 16.86753 913 ft 170 kts 298°
2026-05-01 11:04 51.11383 16.84969 1755 ft 185 kts 297°
2026-05-01 11:04 51.11962 16.83076 2672 ft 200 kts 297°
2026-05-01 11:04 51.12595 16.80924 3349 ft 229 kts 297°
2026-05-01 11:05 51.13259 16.78571 4466 ft 235 kts 297°
2026-05-01 11:05 51.13635 16.75939 5413 ft 259 kts 272°
2026-05-01 11:05 51.13174 16.73053 6359 ft 278 kts 244°
2026-05-01 11:05 51.11893 16.70684 7402 ft 291 kts 217°
2026-05-01 11:06 51.10106 16.69062 8329 ft 300 kts 205°
2026-05-01 11:06 51.08091 16.68279 9361 ft 300 kts 175°
2026-05-01 11:06 51.06136 16.69149 10348 ft 296 kts 143°
2026-05-01 11:07 51.02923 16.73535 11586 ft 328 kts 140°
2026-05-01 11:07 51.01004 16.75643 12231 ft 342 kts 140°
2026-05-01 11:07 50.99026 16.77833 13012 ft 350 kts 139°
2026-05-01 11:07 50.97031 16.80058 13971 ft 353 kts 139°
2026-05-01 11:08 50.95008 16.82318 14770 ft 357 kts 139°
2026-05-01 11:08 50.92963 16.84604 15564 ft 361 kts 139°
2026-05-01 11:08 50.88811 16.89242 17115 ft 368 kts 138°
2026-05-01 11:09 50.86714 16.91582 17867 ft 372 kts 138°
2026-05-01 11:09 50.84582 16.93957 18605 ft 376 kts 138°
2026-05-01 11:09 50.82469 16.96310 19217 ft 379 kts 138°
2026-05-01 11:10 50.78071 17.01198 20472 ft 386 kts 138°
2026-05-01 11:10 50.75892 17.03616 21078 ft 390 kts 138°
2026-05-01 11:10 50.73658 17.06092 21675 ft 394 kts 138°
2026-05-01 11:10 50.71403 17.08591 22283 ft 397 kts 138°
2026-05-01 11:11 50.69132 17.11101 22837 ft 402 kts 138°
2026-05-01 11:11 50.66831 17.13643 23422 ft 405 kts 138°
2026-05-01 11:11 50.64518 17.16195 23977 ft 409 kts 138°
2026-05-01 11:11 50.62174 17.18777 24460 ft 412 kts 138°
2026-05-01 11:12 50.59814 17.21375 24918 ft 415 kts 138°
2026-05-01 11:12 50.57432 17.23994 25384 ft 418 kts 138°
2026-05-01 11:12 50.55041 17.26619 25850 ft 421 kts 138°
2026-05-01 11:12 50.52633 17.29261 26297 ft 424 kts 138°
2026-05-01 11:13 50.50200 17.31925 26743 ft 427 kts 138°
2026-05-01 11:13 50.47752 17.34604 27196 ft 430 kts 138°
2026-05-01 11:13 50.45289 17.37295 27621 ft 433 kts 139°
2026-05-01 11:13 50.42817 17.39994 28070 ft 436 kts 138°
2026-05-01 11:14 50.40352 17.42680 28483 ft 438 kts 138°
2026-05-01 11:14 50.37688 17.45112 28865 ft 451 kts 152°
2026-05-01 11:14 50.34723 17.46803 29353 ft 453 kts 152°
2026-05-01 11:14 50.31795 17.48676 29650 ft 457 kts 152°
2026-05-01 11:15 50.28820 17.50479 30078 ft 463 kts 157°
2026-05-01 11:15 50.25602 17.51315 30490 ft 476 kts 175°
2026-05-01 11:15 50.22275 17.50944 30848 ft 482 kts 182°
2026-05-01 11:15 50.18922 17.50508 31078 ft 486 kts 180°
2026-05-01 11:16 50.15542 17.50079 31432 ft 487 kts 181°
2026-05-01 11:16 50.12154 17.49621 31747 ft 490 kts 181°
2026-05-01 11:16 50.08750 17.49151 32062 ft 492 kts 181°
2026-05-01 11:16 50.05325 17.48677 32368 ft 494 kts 181°
2026-05-01 11:17 50.01914 17.48205 32673 ft 496 kts 181°
2026-05-01 11:17 49.98511 17.47735 32980 ft 499 kts 181°
2026-05-01 11:17 49.95060 17.47258 33281 ft 501 kts 181°
2026-05-01 11:17 49.91575 17.46778 33671 ft 501 kts 181°
2026-05-01 11:18 49.88110 17.46301 34111 ft 500 kts 181°
2026-05-01 11:18 49.84647 17.45824 34498 ft 499 kts 181°
2026-05-01 11:18 49.81185 17.45349 34880 ft 499 kts 181°
2026-05-01 11:18 49.77725 17.44875 35210 ft 499 kts 181°
2026-05-01 11:19 49.74260 17.44400 35524 ft 499 kts 181°
2026-05-01 11:19 49.70815 17.43929 35873 ft 498 kts 181°
2026-05-01 11:19 49.67366 17.43458 36239 ft 496 kts 181°
2026-05-01 11:19 49.63931 17.42990 36595 ft 495 kts 181°
2026-05-01 11:20 49.60541 17.42529 36905 ft 495 kts 181°
2026-05-01 11:20 49.57114 17.42063 37205 ft 494 kts 181°
2026-05-01 11:20 49.53687 17.41598 37410 ft 495 kts 181°
2026-05-01 11:20 49.50260 17.41160 37365 ft 493 kts 179°
2026-05-01 11:21 49.43420 17.40637 37362 ft 492 kts 179°
2026-05-01 11:21 49.36595 17.40073 37361 ft 492 kts 179°
2026-05-01 11:22 49.29751 17.39507 37364 ft 493 kts 179°
2026-05-01 11:22 49.22884 17.38938 37363 ft 494 kts 179°
2026-05-01 11:23 49.16063 17.38375 37370 ft 494 kts 179°
2026-05-01 11:23 49.09194 17.37810 37379 ft 494 kts 179°
2026-05-01 11:24 49.02320 17.37245 37373 ft 495 kts 179°
2026-05-01 11:25 48.92012 17.36402 37372 ft 495 kts 179°
2026-05-01 11:25 48.81700 17.35562 37368 ft 494 kts 179°
2026-05-01 11:26 48.71415 17.34728 37367 ft 494 kts 179°
2026-05-01 11:27 48.64618 17.34179 37362 ft 493 kts 179°
2026-05-01 11:27 48.57768 17.33627 37363 ft 492 kts 179°
2026-05-01 11:28 48.50921 17.33076 37365 ft 492 kts 179°
2026-05-01 11:28 48.44082 17.32528 37363 ft 492 kts 179°
2026-05-01 11:29 48.33848 17.31710 37370 ft 493 kts 179°
2026-05-01 11:30 48.23559 17.30891 37369 ft 493 kts 179°
2026-05-01 11:30 48.16701 17.30347 37373 ft 495 kts 179°
2026-05-01 11:31 48.09818 17.30058 37372 ft 493 kts 175°
2026-05-01 11:31 48.02935 17.30095 37370 ft 495 kts 176°
2026-05-01 11:32 47.96097 17.30084 37377 ft 495 kts 176°
2026-05-01 11:32 47.89189 17.30069 37375 ft 496 kts 176°
2026-05-01 11:33 47.82285 17.30054 37372 ft 496 kts 176°
2026-05-01 11:33 47.75377 17.30038 37365 ft 496 kts 176°
2026-05-01 11:34 47.68473 17.30023 37378 ft 496 kts 176°
2026-05-01 11:34 47.61557 17.30008 37375 ft 496 kts 176°
2026-05-01 11:35 47.54689 17.29993 37373 ft 496 kts 176°
2026-05-01 11:35 47.47738 17.29978 37374 ft 496 kts 176°
2026-05-01 11:36 47.40882 17.29963 37411 ft 496 kts 176°
2026-05-01 11:36 47.33957 17.29948 37375 ft 497 kts 176°
2026-05-01 11:37 47.27039 17.29934 37376 ft 498 kts 176°
2026-05-01 11:37 47.20106 17.29919 37376 ft 497 kts 175°
2026-05-01 11:38 47.13185 17.29904 37370 ft 498 kts 176°
2026-05-01 11:38 47.06257 17.29889 37374 ft 498 kts 175°
2026-05-01 11:39 46.99374 17.29874 37376 ft 498 kts 175°
2026-05-01 11:39 46.92449 17.29859 37367 ft 497 kts 175°
2026-05-01 11:40 46.86689 17.29847 37370 ft 498 kts 175°
2026-05-01 11:40 46.79761 17.29833 37374 ft 498 kts 175°
2026-05-01 11:41 46.72833 17.29818 37373 ft 498 kts 175°
2026-05-01 11:41 46.65896 17.29804 37375 ft 498 kts 175°
2026-05-01 11:42 46.58958 17.29789 37371 ft 498 kts 175°
2026-05-01 11:42 46.52023 17.29774 37366 ft 498 kts 175°
2026-05-01 11:43 46.45146 17.29760 37364 ft 498 kts 175°
2026-05-01 11:43 46.38207 17.29745 37355 ft 497 kts 175°
2026-05-01 11:44 46.27830 17.29724 37357 ft 497 kts 175°
2026-05-01 11:44 46.20922 17.29709 37359 ft 497 kts 175°
2026-05-01 11:45 46.14046 17.29695 37354 ft 497 kts 175°
2026-05-01 11:45 46.07132 17.29681 37355 ft 497 kts 175°
2026-05-01 11:46 46.00229 17.29725 37354 ft 492 kts 171°
2026-05-01 11:46 45.96936 17.30671 37349 ft 476 kts 155°
2026-05-01 11:46 45.93777 17.32128 37347 ft 482 kts 159°
2026-05-01 11:47 45.87329 17.34763 37380 ft 482 kts 158°
2026-05-01 11:47 45.80898 17.37501 37349 ft 481 kts 158°
2026-05-01 11:48 45.74524 17.40225 37354 ft 481 kts 158°
2026-05-01 11:48 45.68109 17.42961 37359 ft 481 kts 158°
2026-05-01 11:49 45.61693 17.45691 37383 ft 481 kts 159°
2026-05-01 11:49 45.55263 17.48420 37346 ft 482 kts 159°
2026-05-01 11:50 45.48827 17.51145 37364 ft 483 kts 159°
2026-05-01 11:50 45.42432 17.53847 37368 ft 482 kts 159°
2026-05-01 11:51 45.36000 17.56557 37355 ft 482 kts 159°
2026-05-01 11:51 45.29557 17.59266 37354 ft 482 kts 159°
2026-05-01 11:52 45.23129 17.61962 37379 ft 482 kts 159°
2026-05-01 11:52 45.16688 17.64656 37355 ft 483 kts 159°
2026-05-01 11:53 45.10226 17.67355 37360 ft 484 kts 159°
2026-05-01 11:53 45.03767 17.70045 37348 ft 483 kts 159°
2026-05-01 11:54 44.97317 17.72725 37353 ft 483 kts 160°
2026-05-01 11:54 44.90901 17.75384 37354 ft 484 kts 160°
2026-05-01 11:55 44.84430 17.78059 37366 ft 484 kts 160°
2026-05-01 11:55 44.78039 17.80697 37348 ft 483 kts 160°
2026-05-01 11:56 44.71576 17.83357 37348 ft 483 kts 160°
2026-05-01 11:56 44.65126 17.86006 37345 ft 483 kts 161°
2026-05-01 11:57 44.58665 17.88653 37336 ft 483 kts 161°
2026-05-01 11:57 44.52218 17.91288 37337 ft 483 kts 161°
2026-05-01 11:58 44.45802 17.93905 37338 ft 483 kts 161°
2026-05-01 11:59 44.36131 17.97838 37328 ft 482 kts 161°
2026-05-01 11:59 44.29676 18.00455 37318 ft 483 kts 161°
2026-05-01 12:00 44.20008 18.04365 37311 ft 483 kts 161°
2026-05-01 12:01 44.10314 18.08272 37314 ft 484 kts 162°
2026-05-01 12:01 44.03887 18.10854 37290 ft 482 kts 162°
2026-05-01 12:02 43.97426 18.13443 37290 ft 483 kts 162°
2026-05-01 12:02 43.90973 18.16024 37278 ft 483 kts 162°
2026-05-01 12:03 43.84498 18.18610 37287 ft 487 kts 162°
2026-05-01 12:03 43.78023 18.21187 37301 ft 485 kts 162°
2026-05-01 12:04 43.71569 18.23752 37278 ft 483 kts 162°
2026-05-01 12:04 43.65057 18.26333 37285 ft 488 kts 163°
2026-05-01 12:05 43.58543 18.28909 37222 ft 488 kts 162°
2026-05-01 12:05 43.48738 18.32777 37228 ft 488 kts 163°
2026-05-01 12:06 43.42201 18.35348 37218 ft 491 kts 163°
2026-05-01 12:06 43.35646 18.37918 37230 ft 488 kts 163°
2026-05-01 12:07 43.29149 18.40464 37201 ft 485 kts 163°
2026-05-01 12:07 43.22649 18.43002 37228 ft 489 kts 163°
2026-05-01 12:08 43.16102 18.45554 37186 ft 492 kts 163°
2026-05-01 12:08 43.09457 18.48138 37198 ft 495 kts 163°
2026-05-01 12:09 43.02899 18.50683 37178 ft 488 kts 164°
2026-05-01 12:09 42.96361 18.53215 37192 ft 486 kts 164°
2026-05-01 12:10 42.86615 18.56977 37170 ft 487 kts 165°
2026-05-01 12:11 42.76851 18.60735 37174 ft 486 kts 165°
2026-05-01 12:11 42.70351 18.63230 37167 ft 489 kts 165°
2026-05-01 12:12 42.63841 18.65722 37171 ft 483 kts 165°
2026-05-01 12:12 42.57368 18.68197 37188 ft 483 kts 165°
2026-05-01 12:13 42.50919 18.70655 37172 ft 480 kts 165°
2026-05-01 12:13 42.44460 18.73112 37196 ft 482 kts 166°
2026-05-01 12:14 42.38012 18.75561 37158 ft 480 kts 166°
2026-05-01 12:14 42.31583 18.77997 37176 ft 481 kts 166°
2026-05-01 12:15 42.25137 18.80433 37164 ft 480 kts 166°
2026-05-01 12:15 42.18687 18.82867 37165 ft 481 kts 166°
2026-05-01 12:16 42.12241 18.85294 37160 ft 481 kts 166°
2026-05-01 12:16 42.05838 18.87699 37159 ft 481 kts 166°
2026-05-01 12:17 41.99392 18.90116 37162 ft 481 kts 167°
2026-05-01 12:17 41.92938 18.92530 37161 ft 481 kts 167°
2026-05-01 12:18 41.86494 18.94937 37159 ft 481 kts 167°
2026-05-01 12:18 41.80044 18.97340 37153 ft 481 kts 167°
2026-05-01 12:19 41.73591 18.99740 37145 ft 481 kts 167°
2026-05-01 12:19 41.67142 19.02134 37150 ft 481 kts 167°
2026-05-01 12:20 41.60711 19.04515 37131 ft 481 kts 168°
2026-05-01 12:20 41.54293 19.06888 37141 ft 482 kts 168°
2026-05-01 12:21 41.47834 19.09270 37132 ft 482 kts 168°
2026-05-01 12:21 41.41507 19.12284 37135 ft 484 kts 162°
2026-05-01 12:22 41.36258 19.14868 37114 ft 484 kts 163°
2026-05-01 12:22 41.28845 19.18471 37118 ft 485 kts 163°
2026-05-01 12:23 41.22502 19.21544 37116 ft 485 kts 163°
2026-05-01 12:23 41.16201 19.24590 37116 ft 485 kts 163°
2026-05-01 12:24 41.09851 19.27654 37102 ft 485 kts 163°
2026-05-01 12:24 41.03508 19.30708 37099 ft 485 kts 163°
2026-05-01 12:25 40.93983 19.35282 37079 ft 485 kts 164°
2026-05-01 12:26 40.87627 19.38328 37092 ft 486 kts 164°
2026-05-01 12:26 40.78128 19.42867 37077 ft 486 kts 164°
2026-05-01 12:27 40.68596 19.47406 37077 ft 486 kts 165°
2026-05-01 12:28 40.60127 19.51431 37066 ft 485 kts 165°
2026-05-01 12:29 40.50584 19.55964 37038 ft 486 kts 165°
2026-05-01 12:29 40.41040 19.60487 37040 ft 486 kts 165°
2026-05-01 12:30 40.31526 19.64981 37043 ft 486 kts 165°
2026-05-01 12:31 40.25158 19.67981 37027 ft 486 kts 166°
2026-05-01 12:31 40.18790 19.70978 37031 ft 487 kts 166°
2026-05-01 12:32 40.12419 19.73968 37047 ft 487 kts 166°
2026-05-01 12:32 40.02851 19.78447 37022 ft 487 kts 166°
2026-05-01 12:33 39.96472 19.81427 37033 ft 487 kts 167°
2026-05-01 12:33 39.90088 19.84360 37035 ft 484 kts 171°
2026-05-01 12:34 39.83697 19.86701 37042 ft 483 kts 170°
2026-05-01 12:34 39.77245 19.89137 37059 ft 483 kts 171°
2026-05-01 12:35 39.70800 19.91561 37043 ft 480 kts 173°
2026-05-01 12:35 39.67551 19.92175 37050 ft 465 kts 186°
2026-05-01 12:35 39.64306 19.92420 37016 ft 473 kts 180°
2026-05-01 12:36 39.57775 19.93542 37051 ft 474 kts 181°
2026-05-01 12:36 39.51249 19.94657 37049 ft 471 kts 181°
2026-05-01 12:37 39.44789 19.95761 37041 ft 472 kts 181°
2026-05-01 12:37 39.38273 19.96874 37048 ft 472 kts 181°
2026-05-01 12:38 39.31758 19.97983 37043 ft 472 kts 181°
2026-05-01 12:38 39.25250 19.99090 37046 ft 472 kts 181°
2026-05-01 12:39 39.18731 20.00196 37046 ft 472 kts 181°
2026-05-01 12:39 39.12219 20.01298 37034 ft 472 kts 182°
2026-05-01 12:40 39.05701 20.02402 36656 ft 470 kts 182°
2026-05-01 12:40 39.02452 20.02948 35798 ft 474 kts 182°
2026-05-01 12:40 38.99174 20.03500 34939 ft 477 kts 183°
2026-05-01 12:41 38.95886 20.04056 34351 ft 474 kts 184°
2026-05-01 12:41 38.92664 20.04599 33705 ft 472 kts 184°
2026-05-01 12:41 38.89409 20.05147 32872 ft 472 kts 184°
2026-05-01 12:41 38.86115 20.05701 32154 ft 470 kts 184°
2026-05-01 12:42 38.82889 20.06243 31596 ft 465 kts 184°
2026-05-01 12:42 38.79693 20.06779 31066 ft 460 kts 184°
2026-05-01 12:42 38.76571 20.07303 30508 ft 456 kts 184°
2026-05-01 12:42 38.73435 20.07828 29846 ft 455 kts 184°
2026-05-01 12:43 38.70308 20.08352 29117 ft 452 kts 184°
2026-05-01 12:43 38.67203 20.08871 28572 ft 446 kts 184°
2026-05-01 12:43 38.64188 20.09379 28234 ft 425 kts 184°
2026-05-01 12:43 38.61331 20.09859 28105 ft 407 kts 185°
2026-05-01 12:44 38.58548 20.10318 27943 ft 401 kts 185°
2026-05-01 12:44 38.55734 20.10779 27757 ft 415 kts 184°
2026-05-01 12:44 38.49924 20.11750 27389 ft 423 kts 184°
2026-05-01 12:45 38.44142 20.12539 26863 ft 408 kts 194°
2026-05-01 12:45 38.41481 20.11794 26013 ft 381 kts 216°
2026-05-01 12:45 38.39381 20.09908 25205 ft 364 kts 232°
2026-05-01 12:46 38.37506 20.07780 24497 ft 363 kts 222°
2026-05-01 12:46 38.35124 20.06556 23798 ft 382 kts 199°
2026-05-01 12:46 38.32416 20.06577 23019 ft 395 kts 183°
2026-05-01 12:46 38.29674 20.06739 22141 ft 388 kts 195°
2026-05-01 12:47 38.27083 20.05975 21284 ft 382 kts 205°
2026-05-01 12:47 38.24461 20.05225 20524 ft 391 kts 199°
2026-05-01 12:47 38.21821 20.04628 20035 ft 378 kts 198°
2026-05-01 12:47 38.19273 20.04089 19656 ft 362 kts 198°
2026-05-01 12:48 38.16829 20.03588 19292 ft 353 kts 197°
2026-05-01 12:48 38.14408 20.03103 18912 ft 351 kts 197°
2026-05-01 12:48 38.11988 20.02669 18410 ft 356 kts 191°
2026-05-01 12:48 38.09456 20.03107 17583 ft 383 kts 166°
2026-05-01 12:49 38.07149 20.04838 16793 ft 402 kts 142°
2026-05-01 12:49 38.05267 20.07514 16006 ft 404 kts 132°
2026-05-01 12:49 38.03457 20.10200 15227 ft 397 kts 134°
2026-05-01 12:49 38.01661 20.12815 14494 ft 391 kts 133°
2026-05-01 12:50 37.99884 20.15391 13782 ft 384 kts 134°
2026-05-01 12:50 37.98142 20.17918 13134 ft 375 kts 134°
2026-05-01 12:50 37.96464 20.20361 12727 ft 359 kts 134°
2026-05-01 12:50 37.94863 20.22694 12403 ft 344 kts 134°
2026-05-01 12:51 37.93318 20.24940 12066 ft 335 kts 134°
2026-05-01 12:51 37.91768 20.27173 11722 ft 341 kts 134°
2026-05-01 12:51 37.88594 20.31729 10975 ft 345 kts 134°
2026-05-01 12:52 37.87017 20.33996 10687 ft 340 kts 134°
2026-05-01 12:52 37.84050 20.38282 10400 ft 305 kts 134°
2026-05-01 12:52 37.82711 20.40216 10263 ft 288 kts 134°
2026-05-01 12:53 37.80112 20.43949 10010 ft 289 kts 134°
2026-05-01 12:53 37.78765 20.45873 9721 ft 295 kts 134°
2026-05-01 12:53 37.77397 20.47825 9376 ft 296 kts 134°
2026-05-01 12:54 37.76031 20.49772 9059 ft 295 kts 134°
2026-05-01 12:54 37.73322 20.53638 8423 ft 292 kts 134°
2026-05-01 12:54 37.71980 20.55553 8129 ft 290 kts 134°
2026-05-01 12:55 37.69321 20.59341 7528 ft 286 kts 134°
2026-05-01 12:55 37.68008 20.61210 7233 ft 284 kts 134°
2026-05-01 12:55 37.66697 20.63074 6948 ft 283 kts 134°
2026-05-01 12:56 37.65409 20.64904 6659 ft 281 kts 133°
2026-05-01 12:56 37.64112 20.66747 6361 ft 280 kts 133°
2026-05-01 12:56 37.62820 20.68581 6057 ft 279 kts 133°
2026-05-01 12:56 37.61533 20.70405 5746 ft 278 kts 133°
2026-05-01 12:57 37.60246 20.72231 5442 ft 278 kts 133°
2026-05-01 12:57 37.57733 20.75794 5100 ft 258 kts 134°
2026-05-01 12:57 37.56606 20.77430 5077 ft 238 kts 128°
2026-05-01 12:58 37.55849 20.79231 4859 ft 229 kts 112°
2026-05-01 12:58 37.55399 20.81122 4599 ft 223 kts 105°
2026-05-01 12:58 37.55065 20.83000 4378 ft 215 kts 103°
2026-05-01 12:59 37.54669 20.86577 4007 ft 198 kts 95°
2026-05-01 12:59 37.54614 20.88269 3840 ft 189 kts 91°
2026-05-01 12:59 37.54755 20.91516 3553 ft 186 kts 84°
2026-05-01 13:00 37.55964 20.94192 3198 ft 181 kts 23°
2026-05-01 13:00 37.57169 20.94475 3038 ft 175 kts 350°
2026-05-01 13:01 37.59523 20.93792 2812 ft 173 kts 342°
2026-05-01 13:01 37.60685 20.93404 2650 ft 173 kts 342°
2026-05-01 13:01 37.62950 20.92621 2360 ft 163 kts 341°
2026-05-01 13:02 37.64039 20.92253 2161 ft 161 kts 341°
2026-05-01 13:07 37.75379 20.88439 18 ft 9 kts 162°
2026-05-01 13:07 37.75309 20.88464 18 ft 12 kts 165°
2026-05-01 13:07 37.75227 20.88494 21 ft 13 kts 163°
2026-05-01 13:08 37.75175 20.88514 18 ft 7 kts 161°
2026-05-01 13:08 37.75162 20.88520 19 ft 0 kts 161°
2026-05-01 13:08 37.75157 20.88522 19 ft 2 kts 161°
2026-05-01 13:08 37.75154 20.88527 18 ft 0 kts 122°
2026-05-01 13:09 37.75154 20.88530 18 ft 1 kts 87°
2026-05-01 13:09 37.75167 20.88588 18 ft 8 kts 74°
2026-05-01 13:09 37.75168 20.88592 18 ft 0 kts 72°